Weather in Baranovka

Russia / Kemerovo Oblast     55°38′17″N   85°57′07″E
temp.,
°C
wind,
m/s
gust,
m/s
humid.,
%
clouds,
%
prec.,
mm/h
press.,
hPa
HPBL,
m
13 may, thu
thu1301:00+11n005111 0.0 101410
04:00+10se115654 0.0 101311
07:00+11s125670 0.0 101370
10:00+17ssw343777 0.0 1013768
13:00+20ssw2430100 0.0 10122788
16:00+21wsw352497 0.0 10113064
19:00+19wnw3430100 0.0 10111165
22:00+12nnw3867100 0.1 1013293
14 may, fri
fri1401:00+9nnw2888100 0.1 1014247
04:00+8nw279056 0.0 1014211
07:00+9nw38745 0.0 1016447
10:00+11nw575868 0.0 10171281
13:00+14nw58302 0.0 10181853
16:00+14nnw582490 0.0 10181834
19:00+12nw4727100 0.0 10201559
22:00+8wnw224399 0.0 102243
15 may, sat
sat1501:00+8w2450100 0.0 1021211
04:00+9sw41149100 0.0 1020586
07:00+10sw5145599 0.3 1019691
10:00+15wsw6114750 0.1 1018860
13:00+20wsw694275 0.3 10171311
16:00+23wsw6104077 0.1 10152201
19:00+22wsw6124622 0.1 10131900
22:00+15sw31068100 0.5 1014328
16 may, sun
sun1601:00+13sw41180100 2.8 1013384
04:00+12ssw4119518 1.7 1012330
07:00+12ssw2689100 1.9 1012236
10:00+15ssw228076 0.9 1013441
13:00+19wnw2466100 1.7 10121120
16:00+16n698019 5.3 1012680
19:00+12nne3685100 5.4 1015621
22:00+11nne2582100 0.0 1017358
17 may, mon
mon1701:00+11n1172100 0.0 101836
04:00+8nnw118395 0.0 101810
07:00+10wsw1177100 0.0 1018117
10:00+14sw356185 0.0 1018861
13:00+15ssw48665 0.0 1015692
16:00+23wsw610465 0.0 10111715
19:00+24sw5105191 0.0 10091271
22:00+20wsw7155635 0.0 10081063